Probability
0 0 0 0 0 0 0 0 0 0 0 0 0 0 0 0 0 0 0 0 0 0 0 0 0 0 0 0 0 0 0 0 0 0 0 0 0 0
0 0 0 0 0 0 0 0 0 0 0 0 0 0 0 0 0 0 0 0 0 0 0 0 0 0 0 0 0 0 0 0 0 0 0 0 0 0
0 0 0 0 0 0 0 0 0 0 0 0 0 0 0 0 0 0 0 0 0 0 0 0 0 0 0 0 0 0 0 0 0 0 0 0 0 0
0 0 0 0 0 0 0 0 0 0 0 0 0 0 0 0 0 0 0 0 0 0 0 0 0 0 0 0 0 0 0 0 0 0 0 0 0 0
0 0 0 0 0 0 0 0 0 0 0 0 0 0 0 0 0 0 0 0 0 0 0 0 0 0 0 0 0 0 0 0 0 0 0 0 0 0
0 0 0 0 0 0 0 0 0 0 0 0 0 0 0 0 0 0 0 0 0 0 0 0 0 0 0 0 0 0 0 0 0 0 0 0 0 0
0 0 0 0 0 0 0 0 0 0 0 0 0 0 0 0 0 0 0 0 0 0 0 0 0 0 0 0 0 0 0 0 0 0 0 0 0 0
0 0 0 0 0 0 0 0 0 0 0 0 0 0 0 0 0 0 0 0 0 0 0 0 0 0 0 0 0 0 0 0 0 0 0 0 0 0
0 0 0 0 0 0 0 0 0 0 0 0 0 0 0 0 0 0 0 0 0 0 0 0 0 0 0 0 0 0 0 0 0 0 0 0 0 0
0 0 0 0 0 0 0 0 0 0 0 0 0 0 0 0 0 0 0 0 0 0 0 0 0 0 0 0 0 0 0 0 0 0 0 0 0 0
0 0 0 0 0 0 0 0 0 0 0 0 0 0 0 0 0 0 0 0 0 0 0 0 0 0 0 0 0 0 0 0 0 0 0 0 0 0
0 0 0 0 0 0 0 0 0 0 0 0 0 0 0 0 0 0 0 0 0 0 0 0 0 0 0 0 0 0 0 0 0 0 0 0 0 0
0 0 0 0 0 0 0 0 0 0 0 0 0 0 0 0 0 0 0 0 0 0 0 0 0 0 0 0 0 0 0 0 0 0 0 0 0 0
0 0 0 0 0 0 0 0 0 0 0 0 0 0 0 0 0 0 0 0 0 0 0 0 0 0 0 0 0 0 0 0 0 0 0 0 0 0
0 0 0 0 0 0 0 0 0 0 0 0 0 0 0 0 0 0 0 0 0 0 0 0 0 0 0 0 0 0 0 0 0 0 0 0 0 0
0 0 0 0 0 0 0 0 0 0 0 0 0 0 0 0 0 0 0 0 0 0 0 0 0 0 0 0 0 0 0 0 0 0 0 0 0 0
0 0 0 0 0 0 0 0 0 0 0 0 0 0 0 0 0 0 0 0 0 0 0 0 0 0 0 0 0 0 0 0 0 0 0 0 0 0
0 0 0 0 0 0 0 0 0 0 0 0 0 0 0 0 0 0 0 0 0 0 0 0 0 0 0 0 0 0 0 0 0 0 0 0 0 0
0 0 0 0 0 0 0 0 0 0 0 0 0 0 0 0 0 0 0 0 0 0 0 0 0 0 0 0 0 0 0 0 0 0 0 0 0 0
0 0 0 0 0 0 0 0 0 0 0 0 0 0 0 0 0 0 0 0 0 0 0 0 0 0 0 0 0 0 0 0 0 0 0 0 0 0
0 0 0 0 0 0 0 0 0 0 0 0 0 0 0 0 0 0 0 0 0 0 0 0 0 0 0 0 0 0 0 0 0 0 0 0 0 0
0 0 0 0 0 0 0 0 0 0 0 0 0 0 0 0 0 0 0 0 0 0 0 0 0 0 0 0 0 0 0 0 0 0 0 0 0 0
0 0 0 0 0 0 0 0 0 0 0 0 0 0 0 0 0 0 0 0 0 0 0 0 0 0 0 0 0 0 0 0 0 0 0 0 0 0
Wind_Speed
7 7 5 4 4 3 3 3 4 5 5 3 3 2 3 5 4 8 10 7 8 13 15 16 16 18 19 20 21 21 22 23 23 24 24 24 25 25
6 7 5 4 4 3 3 3 3 5 7 4 3 5 6 8 6 9 11 9 15 17 16 14 15 17 18 19 20 21 21 22 22 23 23 23 24 24
5 5 5 4 3 3 3 3 3 4 6 6 6 5 7 9 9 9 10 11 9 9 10 11 14 16 18 18 19 19 20 20 21 21 22 22 22 23
5 4 3 2 3 3 3 4 4 4 6 8 8 8 8 9 9 10 10 9 10 7 8 12 15 15 16 16 17 18 18 18 19 20 20 21 22 22
3 3 3 3 4 3 4 5 5 5 6 8 9 7 8 7 9 10 10 8 10 9 9 13 13 13 15 16 16 16 15 15 16 17 18 19 19 20
3 3 4 4 5 5 4 5 6 7 7 8 8 8 7 8 8 8 9 8 9 10 10 9 10 13 16 17 17 16 13 12 13 15 16 17 18 19
3 3 3 4 6 6 7 7 7 7 8 8 8 8 8 8 8 8 9 10 10 9 8 9 9 9 9 9 10 8 8 10 12 13 14 14 15 16
5 5 4 4 2 5 7 8 9 10 10 10 9 9 10 10 8 8 9 10 9 7 9 10 9 9 8 7 2 3 8 10 12 13 13 14 14 15
6 6 6 4 5 6 5 10 13 15 15 11 12 11 11 10 10 10 9 10 11 10 10 10 9 8 9 7 1 5 8 11 12 13 13 14 14 14
6 6 6 6 5 7 11 11 10 8 7 9 9 10 10 9 9 10 11 11 11 8 7 9 9 10 11 8 2 5 10 11 12 12 13 13 13 13
5 5 5 6 7 6 10 11 10 7 5 9 10 11 12 13 11 9 9 8 9 8 6 7 8 10 10 8 7 7 9 9 10 11 12 12 11 12
5 3 2 3 5 7 10 11 10 8 8 6 7 10 11 11 13 11 9 8 8 7 6 6 7 7 6 7 9 8 8 7 8 9 10 10 10 9
6 5 3 2 6 8 10 10 9 10 11 9 7 6 5 5 5 6 6 7 8 8 7 6 6 6 5 6 7 8 8 7 7 6 6 7 8 8
7 6 6 9 12 12 10 7 10 11 8 7 6 5 5 5 5 5 6 7 7 8 8 7 5 6 6 7 6 8 9 7 7 7 6 6 5 5
7 8 11 12 13 10 9 10 10 7 6 6 6 6 6 6 6 6 6 6 6 4 4 5 5 5 5 6 6 7 6 6 7 7 6 6 6 5
6 7 9 11 10 8 7 6 6 5 6 6 7 7 6 6 5 5 5 5 4 3 4 5 4 5 5 8 7 7 7 6 7 7 6 5 7 7
10 7 5 4 4 4 4 4 4 4 5 5 6 6 6 6 5 5 5 5 5 6 6 5 5 3 5 7 8 8 8 7 7 7 6 6 7 7
9 5 5 5 6 6 6 6 6 6 7 7 7 7 7 7 7 6 5 5 5 5 6 6 7 6 4 4 6 9 8 7 7 7 6 5 6 6
5 5 5 6 6 6 7 7 7 7 7 7 7 8 8 8 8 7 7 6 6 5 5 6 7 7 7 6 5 7 9 7 7 6 6 5 5 5
4 5 5 6 6 6 7 7 8 8 8 8 8 8 8 8 8 8 7 8 7 6 6 6 7 7 6 5 5 5 7 8 7 7 6 4 3 2
6 6 6 6 6 6 6 7 8 8 9 8 8 8 8 8 8 8 7 6 6 7 7 6 5 1 3 4 5 5 5 5 7 7 9 6 5 7
7 7 6 7 7 7 8 8 8 8 9 8 8 8 8 8 8 9 8 7 7 7 7 5 4 3 5 6 6 6 6 4 5 6 9 9 6 6
7 8 7 7 7 8 8 10 11 9 9 9 9 8 8 8 8 8 8 8 8 8 6 6 5 5 5 5 5 6 7 6 5 5 6 4 3 2
Wind_Direction
69 65 61 56 42 30 14 340 309 293 271 187 240 241 284 301 312 292 293 288 282 281 280 283 287 289 290 290 289 287 286 286 285 284 284 283 283 282
56 55 43 38 30 17 3 343 322 309 302 315 294 309 326 307 289 292 289 278 257 255 259 271 282 287 288 288 288 288 287 287 286 285 285 285 284 284
49 54 46 22 6 350 339 321 313 311 302 305 310 309 301 296 304 301 297 292 286 242 243 268 278 282 284 286 289 289 289 288 288 286 286 286 286 285
39 32 21 7 350 323 326 318 318 321 298 304 306 301 301 298 297 297 295 296 302 288 249 258 268 273 277 281 285 286 285 286 286 285 285 284 284 284
25 0 341 330 309 318 306 306 305 298 295 295 297 303 297 300 302 296 299 302 298 301 269 254 257 260 264 268 271 272 274 276 280 282 283 283 283 283
11 336 324 322 321 318 298 296 303 306 297 290 292 297 298 304 303 306 310 311 312 309 304 298 283 261 258 256 257 260 266 272 276 279 280 280 281 281
353 331 340 351 350 329 322 326 315 305 302 298 299 301 307 316 315 319 311 312 308 307 315 310 308 304 298 277 255 253 270 279 283 283 281 278 276 276
345 331 307 234 242 253 263 282 294 295 302 304 300 304 308 312 318 312 310 310 311 317 314 311 312 310 308 306 332 294 287 287 288 288 284 282 278 275
339 328 320 346 302 306 276 249 252 244 248 274 291 298 306 315 316 311 310 310 309 311 307 308 317 320 317 323 315 283 285 287 290 290 288 286 282 278
324 317 316 317 348 340 314 301 294 281 256 252 278 293 302 310 308 300 297 294 293 299 315 314 325 327 324 324 317 278 285 288 291 292 293 292 287 281
318 317 316 316 55 347 301 296 299 303 252 234 256 271 280 278 277 286 293 300 311 324 339 324 325 325 320 324 331 313 300 295 294 296 298 298 295 288
321 302 190 317 353 316 300 302 309 323 323 299 259 251 254 250 236 250 283 303 314 321 341 327 321 329 314 319 330 334 335 328 312 306 305 306 307 299
325 333 48 59 321 302 288 287 306 313 303 299 295 289 282 277 258 253 272 290 306 315 327 331 316 321 310 312 324 339 340 341 339 334 319 321 321 317
322 340 359 344 318 301 288 292 298 290 284 292 298 306 308 310 312 308 297 289 287 297 311 319 306 315 319 323 326 332 337 345 345 343 349 351 345 336
329 334 314 305 299 284 254 271 281 277 293 308 315 317 318 323 314 301 294 292 296 301 319 324 319 323 335 338 336 336 333 337 348 351 358 7 6 359
320 311 288 278 274 285 291 272 273 303 319 318 319 321 321 319 314 314 318 328 334 360 13 3 359 359 2 1 353 346 344 342 347 354 1 19 22 17
327 315 321 328 336 349 338 331 329 328 325 327 330 329 332 337 341 342 335 333 346 2 12 10 19 58 58 19 358 352 348 350 354 354 2 20 27 24
309 322 339 348 352 351 348 349 353 351 346 345 347 345 343 346 351 349 347 350 -0 13 16 14 15 21 45 75 31 357 353 352 352 358 6 14 25 28
311 343 350 352 354 353 354 356 355 355 353 351 352 352 350 351 354 356 1 2 12 22 23 22 26 19 17 20 37 26 360 353 353 0 5 7 18 30
356 356 353 354 359 357 359 359 354 354 357 352 354 355 354 354 357 1 11 9 7 17 30 33 33 24 21 20 13 24 24 10 1 357 350 345 33 77
11 7 3 0 -0 355 355 354 349 352 356 349 355 355 353 353 357 1 12 15 0 16 25 38 41 5 19 39 42 36 51 57 31 14 359 1 25 33
9 4 4 0 355 353 352 353 352 355 356 355 355 354 354 352 354 3 9 10 15 18 24 32 37 32 37 39 40 40 43 69 104 82 51 27 23 24
3 353 352 357 356 355 355 352 352 356 359 357 353 352 352 352 356 6 12 14 15 17 22 24 25 32 38 48 52 51 55 55 54 58 65 59 77 111